EW9957 Weather Reports


Display with metric or nautical units.
time (UTC)temp
F
wind
direction
speed
MPH
gust
MPH
rain 1hr
in
rain 24hr
in
rain mn
in
humidity
%
barometer
mb
20260502164106 61 34 3.0 6.0 0.00 0.00 0.00 85 1016.1
20260502164024 61 34 3.0 6.0 0.00 0.00 0.00 85 1016.1
20260502163600 61 34 3.0 4.0 0.00 0.00 0.00 86 1016.0
20260502163108 62 35 2.0 4.0 0.00 0.00 0.00 85 1016.0
20260502162601 61 38 1.0 4.0 0.00 0.00 0.00 86 1015.9
20260502162015 61 35 2.0 4.0 0.00 0.00 0.00 86 1016.0
20260502161538 61 35 2.0 5.0 0.00 0.00 0.00 86 1016.1
20260502161112 61 35 2.0 5.0 0.00 0.00 0.00 86 1016.2
20260502161030 61 35 2.0 5.0 0.00 0.00 0.00 86 1016.2
20260502160546 61 35 2.0 4.0 0.00 0.00 0.00 86 1016.1
20260502152019 61 38 2.0 3.0 0.00 0.00 0.00 87 1016.0
20260502151523 61 36 2.0 5.0 0.00 0.00 0.00 87 1015.9
20260502151041 61 34 3.0 5.0 0.00 0.00 0.00 87 1015.9
20260502150537 61 36 3.0 5.0 0.00 0.00 0.00 86 1015.9
20260502130612 60 36 1.0 2.0 0.00 0.00 0.00 86 1015.2
20260502130529 60 36 1.0 2.0 0.00 0.00 0.00 86 1015.2
20260502123559 61 37 2.0 3.0 0.00 0.00 0.00 86 1014.9
20260502123111 61 35 1.0 3.0 0.00 0.00 0.00 86 1014.9
20260502123029 61 35 1.0 3.0 0.00 0.00 0.00 86 1014.9
20260502122525 61 35 1.0 3.0 0.00 0.00 0.00 86 1014.9
20260502122101 61 35 1.0 2.0 0.00 0.00 0.00 86 1014.9
20260502121524 61 35 1.0 1.0 0.00 0.00 0.00 86 1014.9
20260502121100 60 32 0.0 2.0 0.00 0.00 0.00 86 1014.8
20260502120613 60 38 1.0 2.0 0.00 0.00 0.00 86 1014.8
20260502115526 61 32 1.0 2.0 0.00 0.00 0.00 86 1014.8
20260502115022 61 34 1.0 2.0 0.00 0.00 0.00 87 1014.7
20260502114609 60 35 0.0 2.0 0.00 0.00 0.00 87 1014.7
20260502114042 61 36 0.0 1.0 0.00 0.00 0.00 87 1014.7
20260502113517 61 35 1.0 3.0 0.00 0.00 0.00 86 1014.7
20260502113102 61 34 1.0 3.0 0.00 0.00 0.00 87 1014.8
20260502113020 61 34 1.0 3.0 0.00 0.00 0.00 87 1014.8
20260502112537 60 36 1.0 4.0 0.00 0.00 0.00 87 1014.7
20260502112111 60 38 2.0 5.0 0.00 0.00 0.00 87 1014.7
20260502111532 60 35 3.0 5.0 0.00 0.00 0.00 87 1014.7
20260502111107 60 36 3.0 5.0 0.00 0.00 0.00 87 1014.7
20260502110520 60 34 2.0 3.0 0.00 0.00 0.00 87 1014.7
20260502110045 60 35 3.0 4.0 0.00 0.00 0.00 87 1014.6
20260502105559 61 34 2.0 4.0 0.00 0.00 0.00 87 1014.6
20260502105517 61 34 2.0 4.0 0.00 0.00 0.00 87 1014.6
20260502105033 61 35 3.0 5.0 0.00 0.00 0.00 86 1014.5
20260502104557 61 38 2.0 4.0 0.00 0.00 0.00 86 1014.5
20260502104030 61 36 2.0 5.0 0.00 0.00 0.00 86 1014.5
20260502103547 61 36 3.0 5.0 0.00 0.00 0.00 86 1014.5
20260502103048 61 32 2.0 4.0 0.00 0.00 0.00 86 1014.5
20260502102603 61 34 2.0 4.0 0.00 0.00 0.00 86 1014.4
20260502102016 61 35 1.0 4.0 0.00 0.00 0.00 86 1014.4
20260502101602 61 38 0.0 3.0 0.00 0.00 0.00 86 1014.4
20260502101014 61 35 2.0 3.0 0.00 0.00 0.00 86 1014.4
20260502100529 61 32 1.0 3.0 0.00 0.00 0.00 86 1014.3
20260502091525 60 37 0.0 3.0 0.00 0.00 0.00 87 1014.5
20260502091100 60 35 1.0 4.0 0.00 0.00 0.00 87 1014.4
20260502091018 60 35 1.0 4.0 0.00 0.00 0.00 87 1014.4
20260502090613 60 38 2.0 4.0 0.00 0.00 0.00 86 1014.4
20260502090530 60 38 2.0 4.0 0.00 0.00 0.00 86 1014.4
20260502071106 61 36 1.0 3.0 0.00 0.00 0.00 85 1015.2
20260502071024 61 36 1.0 3.0 0.00 0.00 0.00 85 1015.2
20260502070545 61 32 1.0 4.0 0.00 0.00 0.00 85 1015.3
20260502070028 61 34 2.0 4.0 0.00 0.00 0.00 84 1015.3
20260502065524 61 36 0.0 2.0 0.00 0.00 0.00 84 1015.3
20260502065019 61 38 1.0 3.0 0.00 0.00 0.00 84 1015.3
20260502064541 61 34 1.0 3.0 0.00 0.00 0.00 84 1015.3
20260502064015 61 35 2.0 3.0 0.00 0.00 0.00 84 1015.3
20260502063609 61 36 0.0 3.0 0.00 0.00 0.00 84 1015.3
20260502063027 61 38 2.0 4.0 0.00 0.00 0.00 84 1015.3
20260502062522 61 38 2.0 4.0 0.00 0.00 0.00 84 1015.2
20260502062017 61 36 2.0 3.0 0.00 0.00 0.00 84 1015.3
20260502061035 61 32 2.0 4.0 0.00 0.00 0.00 84 1015.2
20260502060529 62 37 1.0 4.0 0.00 0.00 0.00 84 1015.3
20260502060051 61 32 1.0 3.0 0.00 0.00 0.00 84 1015.3
20260502055605 61 36 2.0 4.0 0.00 0.00 0.00 84 1015.3
20260502055018 61 36 1.0 4.0 0.00 0.00 0.00 84 1015.3
20260502054543 61 38 2.0 3.0 0.00 0.00 0.00 83 1015.4
20260502054037 62 36 0.0 2.0 0.00 0.00 0.00 83 1015.3
20260502053611 62 35 0.0 3.0 0.00 0.00 0.00 83 1015.4
20260502053529 62 35 0.0 3.0 0.00 0.00 0.00 83 1015.4
20260502053053 62 34 1.0 3.0 0.00 0.00 0.00 84 1015.3
20260502052547 62 35 1.0 4.0 0.00 0.00 0.00 84 1015.4
20260502052043 61 35 2.0 5.0 0.00 0.00 0.00 84 1015.3
20260502051607 62 36 3.0 5.0 0.00 0.00 0.00 84 1015.3
20260502051524 62 36 3.0 5.0 0.00 0.00 0.00 84 1015.3
20260502051019 62 34 2.0 4.0 0.00 0.00 0.00 84 1015.3
20260502050515 62 35 2.0 4.0 0.00 0.00 0.00 83 1015.3
20260502050037 62 35 2.0 4.0 0.00 0.00 0.00 83 1015.3
20260502045551 62 36 2.0 4.0 0.00 0.00 0.00 83 1015.3
20260502045025 62 32 2.0 5.0 0.00 0.00 0.00 84 1015.3
20260502044525 62 35 3.0 5.0 0.00 0.00 0.00 84 1015.3
20260502044101 62 36 3.0 5.0 0.00 0.00 0.00 84 1015.3
20260502044018 62 36 3.0 5.0 0.00 0.00 0.00 84 1015.3
20260502043514 62 38 3.0 5.0 0.00 0.00 0.00 84 1015.3
20260502043038 61 35 4.0 5.0 0.00 0.00 0.00 84 1015.2
20260502042553 62 38 2.0 4.0 0.00 0.00 0.00 84 1015.2
20260502042046 62 36 2.0 6.0 0.00 0.00 0.00 84 1015.2
20260502041548 62 38 3.0 6.0 0.00 0.00 0.00 84 1015.1
20260502041023 61 34 3.0 6.0 0.00 0.00 0.00 84 1015.0
20260502040519 61 35 2.0 4.0 0.00 0.00 0.00 84 1015.0
20260502040105 61 38 2.0 4.0 0.00 0.00 0.00 83 1015.0
20260502040022 61 38 2.0 4.0 0.00 0.00 0.00 83 1015.0
20260502035540 61 35 1.0 3.0 0.00 0.00 0.00 84 1014.9
20260502035115 61 35 2.0 4.0 0.00 0.00 0.00 84 1014.8
20260502035032 61 35 2.0 4.0 0.00 0.00 0.00 84 1014.8
20260502034537 62 36 3.0 4.0 0.00 0.00 0.00 83 1014.7
20260502034032 62 35 2.0 4.0 0.00 0.00 0.00 82 1014.7
20260502033527 62 37 1.0 2.0 0.00 0.00 0.00 82 1014.5
20260502033026 62 36 1.0 3.0 0.00 0.00 0.00 83 1014.5
20260502032541 61 34 2.0 6.0 0.00 0.00 0.00 83 1014.5
20260502032016 62 34 3.0 5.0 0.00 0.00 0.00 81 1014.5
20260502031519 62 36 3.0 5.0 0.00 0.00 0.00 81 1014.5
20260502031114 62 31 2.0 5.0 0.00 0.00 0.00 82 1014.4
20260502030607 62 34 3.0 7.0 0.00 0.00 0.00 83 1014.5
20260502030025 62 36 4.0 7.0 0.00 0.00 0.00 82 1014.4
20260502025521 62 38 3.0 5.0 0.00 0.00 0.00 81 1014.4
20260502025036 62 36 3.0 7.0 0.00 0.00 0.00 81 1014.3
20260502024519 62 37 3.0 7.0 0.00 0.00 0.00 81 1014.3
20260502024015 62 36 4.0 9.0 0.00 0.00 0.00 81 1014.2
20260502023609 62 38 5.0 9.0 0.00 0.00 0.00 81 1014.3
20260502023527 62 38 5.0 9.0 0.00 0.00 0.00 81 1014.3
20260502023026 62 37 4.0 8.0 0.00 0.00 0.00 81 1014.2
20260502022602 62 36 5.0 8.0 0.00 0.00 0.00 80 1014.2
20260502022519 62 36 5.0 8.0 0.00 0.00 0.00 80 1014.2
20260502022115 62 38 6.0 9.0 0.00 0.00 0.00 80 1014.1
20260502022032 62 38 6.0 9.0 0.00 0.00 0.00 80 1014.1
20260502021534 63 36 5.0 10.0 0.00 0.00 0.00 80 1014.1
20260502021109 63 36 7.0 12.0 0.00 0.00 0.00 80 1014.1
20260502021026 63 36 7.0 12.0 0.00 0.00 0.00 80 1014.1
20260502020543 63 36 8.0 12.0 0.00 0.00 0.00 79 1014.1
20260502020107 63 34 7.0 11.0 0.00 0.00 0.00 79 1014.0
20260502015542 63 32 7.0 12.0 0.00 0.00 0.00 79 1013.9
20260502015035 64 36 8.0 12.0 0.00 0.00 0.00 77 1013.9
20260502014537 64 34 6.0 11.0 0.00 0.00 0.00 78 1013.8
20260502014032 63 34 6.0 11.0 0.00 0.00 0.00 77 1013.7
20260502013607 64 34 7.0 12.0 0.00 0.00 0.00 77 1013.7
20260502013043 64 38 7.0 14.0 0.00 0.00 0.00 76 1013.6
20260502012521 65 36 8.0 14.0 0.00 0.00 0.00 74 1013.5
20260502012017 65 35 6.0 11.0 0.00 0.00 0.00 75 1013.6
20260502011519 65 36 8.0 11.0 0.00 0.00 0.00 75 1013.5
20260502011016 66 38 7.0 13.0 0.00 0.00 0.00 74 1013.4
20260502010611 65 36 8.0 13.0 0.00 0.00 0.00 74 1013.4
20260502010052 66 36 8.0 13.0 0.00 0.00 0.00 72 1013.5
20260502005606 66 36 7.0 11.0 0.00 0.00 0.00 73 1013.3
20260502005524 66 36 7.0 11.0 0.00 0.00 0.00 73 1013.3
20260502005039 66 32 7.0 11.0 0.00 0.00 0.00 72 1013.3
20260502004520 66 35 7.0 11.0 0.00 0.00 0.00 72 1013.2
20260502004016 67 36 6.0 11.0 0.00 0.00 0.00 70 1013.2
20260502003552 67 34 6.0 10.0 0.00 0.00 0.00 70 1013.2
20260502003053 67 32 6.0 12.0 0.00 0.00 0.00 71 1013.2
20260502002548 67 36 7.0 12.0 0.00 0.00 0.00 70 1013.2
20260502002103 67 37 8.0 11.0 0.00 0.00 0.00 69 1013.2
20260502001605 68 36 6.0 11.0 0.00 0.00 0.00 68 1013.1
20260502001522 68 36 6.0 11.0 0.00 0.00 0.00 68 1013.1
20260502001039 68 34 5.0 10.0 0.00 0.00 0.00 68 1013.2
20260502000553 68 34 7.0 13.0 0.00 0.00 0.00 70 1013.2
20260502000013 67 35 8.0 13.0 0.00 0.00 0.00 70 1013.3
20260501235529 68 35 7.0 12.0 0.00 0.00 0.00 67 1013.3
20260501235044 68 34 6.0 13.0 0.00 0.00 0.00 69 1013.2
20260501234546 67 32 7.0 13.0 0.00 0.00 0.00 69 1013.1
20260501234043 68 34 7.0 12.0 0.00 0.00 0.00 67 1013.1
20260501233517 69 36 6.0 11.0 0.00 0.00 0.00 66 1013.1
20260501233112 69 32 7.0 12.0 0.00 0.00 0.00 69 1013.1
20260501232605 68 34 7.0 12.0 0.00 0.00 0.00 68 1013.1
20260501232523 68 34 7.0 12.0 0.00 0.00 0.00 68 1013.1
20260501232019 68 34 7.0 10.0 0.00 0.00 0.00 68 1013.1
20260501231541 70 35 6.0 11.0 0.00 0.00 0.00 65 1013.2
20260501231055 69 34 5.0 11.0 0.00 0.00 0.00 67 1013.2
20260501230528 68 32 7.0 11.0 0.00 0.00 0.00 68 1013.3
20260501230029 69 35 9.0 11.0 0.00 0.00 0.00 66 1013.4
20260501225525 69 36 6.0 12.0 0.00 0.00 0.00 66 1013.5
20260501225041 68 36 8.0 12.0 0.00 0.00 0.00 67 1013.5
20260501224606 69 35 6.0 12.0 0.00 0.00 0.00 67 1013.5
20260501224523 69 35 6.0 12.0 0.00 0.00 0.00 67 1013.5
20260501224100 69 36 7.0 13.0 0.00 0.00 0.00 66 1013.5
20260501224017 69 36 7.0 13.0 0.00 0.00 0.00 66 1013.5
20260501223513 69 34 7.0 12.0 0.00 0.00 0.00 65 1013.5
20260501223015 68 36 7.0 15.0 0.00 0.00 0.00 67 1013.6
20260501222551 69 35 7.0 15.0 0.00 0.00 0.00 65 1013.7
20260501222045 69 32 8.0 15.0 0.00 0.00 0.00 66 1013.7
20260501221526 69 34 7.0 12.0 0.00 0.00 0.00 66 1013.8
20260501221022 69 35 6.0 12.0 0.00 0.00 0.00 66 1013.9
20260501220539 68 32 6.0 15.0 0.00 0.00 0.00 67 1013.9
20260501220042 68 36 8.0 13.0 0.00 0.00 0.00 68 1014.0
20260501215517 69 34 6.0 14.0 0.00 0.00 0.00 67 1014.0
20260501215113 68 35 8.0 14.0 0.00 0.00 0.00 67 1014.1
20260501215031 68 35 8.0 14.0 0.00 0.00 0.00 67 1014.1
20260501214535 68 34 9.0 14.0 0.00 0.00 0.00 68 1014.1
20260501214108 68 36 9.0 14.0 0.00 0.00 0.00 67 1014.2
20260501213600 68 35 8.0 13.0 0.00 0.00 0.00 67 1014.2
20260501213040 68 34 8.0 15.0 0.00 0.00 0.00 68 1014.3
20260501212614 69 36 11.0 16.0 0.00 0.00 0.00 65 1014.3
20260501212532 69 36 11.0 16.0 0.00 0.00 0.00 65 1014.3
20260501212047 69 32 9.0 16.0 0.00 0.00 0.00 64 1014.4
20260501211606 69 36 7.0 12.0 0.00 0.00 0.00 65 1014.3
20260501211524 69 36 7.0 12.0 0.00 0.00 0.00 65 1014.3
20260501211018 70 35 8.0 14.0 0.00 0.00 0.00 66 1014.3
20260501210533 69 34 7.0 14.0 0.00 0.00 0.00 65 1014.3
20260501210036 69 34 9.0 14.0 0.00 0.00 0.00 65 1014.3
20260501205514 69 35 7.0 15.0 0.00 0.00 0.00 65 1014.3
20260501205046 70 35 9.0 15.0 0.00 0.00 0.00 63 1014.3
20260501204523 70 35 7.0 12.0 0.00 0.00 0.00 64 1014.4
20260501204044 69 38 8.0 12.0 0.00 0.00 0.00 65 1014.3
20260501203554 70 35 7.0 14.0 0.00 0.00 0.00 64 1014.2
20260501203014 70 35 8.0 15.0 0.00 0.00 0.00 63 1014.3
20260501202609 70 37 7.0 15.0 0.00 0.00 0.00 63 1014.3
20260501202044 71 35 7.0 12.0 0.00 0.00 0.00 63 1014.3
20260501201547 71 36 6.0 11.0 0.00 0.00 0.00 63 1014.3
20260501201043 69 35 7.0 14.0 0.00 0.00 0.00 64 1014.4
20260501200557 69 35 8.0 14.0 0.00 0.00 0.00 64 1014.4
20260501200059 71 32 6.0 12.0 0.00 0.00 0.00 61 1014.4
20260501195613 71 34 4.0 8.0 0.00 0.00 0.00 60 1014.5
20260501195106 70 36 3.0 9.0 0.00 0.00 0.00 63 1014.5
20260501194526 70 35 5.0 13.0 0.00 0.00 0.00 62 1014.5
20260501194041 69 34 5.0 13.0 0.00 0.00 0.00 63 1014.5
20260501193535 70 35 8.0 13.0 0.00 0.00 0.00 60 1014.5
20260501193036 71 32 3.0 10.0 0.00 0.00 0.00 60 1014.6
20260501192552 71 32 4.0 9.0 0.00 0.00 0.00 62 1014.8
20260501192026 70 35 5.0 9.0 0.00 0.00 0.00 62 1014.8
20260501191547 70 38 3.0 7.0 0.00 0.00 0.00 63 1015.0
20260501191022 68 34 2.0 9.0 0.00 0.00 0.00 65 1015.0
20260501190536 68 35 5.0 11.0 0.00 0.00 0.00 65 1015.2
20260501190039 68 35 6.0 10.0 0.00 0.00 0.00 65 1015.2
20260501185612 68 34 3.0 9.0 0.00 0.00 0.00 65 1015.3
20260501185106 68 35 3.0 9.0 0.00 0.00 0.00 66 1015.3
20260501185023 68 35 3.0 9.0 0.00 0.00 0.00 66 1015.3
20260501184545 67 38 4.0 8.0 0.00 0.00 0.00 66 1015.4
20260501184020 69 36 3.0 8.0 0.00 0.00 0.00 64 1015.5
20260501183536 67 36 3.0 7.0 0.00 0.00 0.00 66 1015.5
20260501183059 67 34 3.0 9.0 0.00 0.00 0.00 66 1015.6
20260501182533 67 32 4.0 9.0 0.00 0.00 0.00 68 1015.7
20260501182047 66 34 4.0 9.0 0.00 0.00 0.00 69 1015.8
20260501181549 65 36 5.0 8.0 0.00 0.00 0.00 70 1015.7
20260501181043 65 32 5.0 9.0 0.00 0.00 0.00 69 1015.8
20260501180539 65 35 5.0 9.0 0.00 0.00 0.00 69 1015.8
20260501180112 66 32 5.0 9.0 0.00 0.00 0.00 69 1015.9
20260501175606 66 35 3.0 9.0 0.00 0.00 0.00 69 1015.9
20260501175055 64 35 4.0 9.0 0.00 0.00 0.00 72 1016.0
20260501174536 64 32 2.0 7.0 0.00 0.00 0.00 73 1016.0
20260501174036 64 35 2.0 6.0 0.00 0.00 0.00 72 1016.1
20260501173606 64 38 3.0 6.0 0.00 0.00 0.00 71 1016.1
20260501173047 63 34 2.0 5.0 0.00 0.00 0.00 72 1016.1
20260501172542 63 35 1.0 3.0 0.00 0.00 0.00 73 1016.2
20260501172018 62 31 1.0 4.0 0.00 0.00 0.00 75 1016.2
20260501171520 63 35 1.0 4.0 0.00 0.00 0.00 74 1016.3